Sulphur Springs, TX

5:24 PM CDT on September 23, 2017 (GMT -0500)
Sulphur Springs Municipal

Weather History for KSLR - May, 2014

Change the Weather History Date:

Sunday, May 25, 2014

  Actual Average (KGVT) Record (KGVT)
Temperature  
Mean Temperature 76 °F -  
Max Temperature 86 °F 82 °F 91 °F (2006)
Min Temperature 65 °F 67 °F 55 °F (2017)
Cooling Degree Days 10    
Growing Degree Days 26 (Base 50)    
Moisture  
Dew Point 64 °F    
Average Humidity 66    
Maximum Humidity 95    
Minimum Humidity 46    
Precipitation  
Precipitation 0.00 in - - ()
Sea Level Pressure  
Sea Level Pressure 30.03 in    
Wind  
Wind Speed 8 mph (South)    
Max Wind Speed 14 mph    
Max Gust Speed 20 mph    
Visibility 10 miles    
Events      
Averages and records for this station are not official NWS values.
T = Trace of Precipitation, MM = Missing Value Source: NWS Daily Summary

Daily Weather History Graph

Daily Weather History Graph

Search for Another Location

Airport or City:

Trip Planner

Search our weather history database for the weather conditions in past years. The results will help you decide how hot, cold, wet, or windy it might be!

Date:

Astronomy

May. 25, 2014 Rise Set
Actual Time 6:16 AM CDT 8:22 PM CDT
Civil Twilight 5:49 AM CDT 8:50 PM CDT
Nautical Twilight 5:15 AM CDT 9:24 PM CDT
Astronomical Twilight 4:38 AM CDT 10:00 PM CDT
Moon 4:11 AM CDT (5/25) 5:32 PM CDT (5/25)
Length of Visible Light 15h 01m
Length of Day
14h 05m
Waning Crescent, 10% of the Moon is Illuminated
May 25
Waning Crescent
May 28
New
Jun 5
First Quarter
Jun 12
Full
Jun 19
Last Quarter

Hourly Weather History & Observations

Time (CDT) Temp. Heat Index Dew Point Humidity Pressure Visibility Wind Dir Wind Speed Gust Speed Precip Events Conditions
12:15 AM 71.8 °F - 62.4 °F 72% 30.03 in 10.0 mi SSE 6.9 mph - N/A   Clear
12:35 AM 72.3 °F - 61.9 °F 70% 30.03 in 10.0 mi SSE 8.1 mph - N/A   Clear
12:55 AM 71.6 °F - 61.9 °F 71% 30.02 in 10.0 mi SSE 4.6 mph - N/A   Clear
1:15 AM 71.2 °F - 61.9 °F 72% 30.01 in 10.0 mi SE 6.9 mph - N/A   Clear
1:35 AM 71.2 °F - 61.7 °F 72% 30.00 in 10.0 mi SSE 8.1 mph - N/A   Clear
1:55 AM 71.2 °F - 61.9 °F 72% 29.99 in 10.0 mi SE 5.8 mph - N/A   Clear
2:15 AM 71.6 °F - 62.2 °F 72% 29.98 in 10.0 mi SSE 10.4 mph - N/A   Clear
2:35 AM 72.1 °F - 62.4 °F 71% 29.99 in 10.0 mi SSE 10.4 mph - N/A   Clear
2:55 AM 71.8 °F - 62.6 °F 73% 29.98 in 10.0 mi SSE 9.2 mph - N/A   Clear
3:15 AM 71.2 °F - 62.6 °F 74% 29.99 in 10.0 mi SSE 6.9 mph - N/A   Clear
3:35 AM 70.9 °F - 62.8 °F 75% 29.99 in 10.0 mi SSE 10.4 mph - N/A   Clear
3:55 AM 70.9 °F - 63.0 °F 76% 29.99 in 10.0 mi SSE 9.2 mph - N/A   Clear
4:15 AM 70.5 °F - 63.3 °F 78% 29.99 in 10.0 mi SSE 6.9 mph - N/A   Clear
4:35 AM 70.2 °F - 63.5 °F 79% 30.01 in 10.0 mi South 3.5 mph - N/A   Clear
4:55 AM 69.8 °F - 63.5 °F 80% 30.01 in 10.0 mi Calm Calm - N/A   Clear
5:15 AM 69.1 °F - 63.5 °F 82% 30.02 in 10.0 mi Calm Calm - N/A   Clear
5:35 AM 68.9 °F - 63.7 °F 83% 30.04 in 10.0 mi Calm Calm - N/A   Scattered Clouds
5:55 AM 67.1 °F - 63.7 °F 89% 30.04 in 10.0 mi Calm Calm - N/A   Scattered Clouds
6:15 AM 65.7 °F - 63.9 °F 94% 30.05 in 7.0 mi ESE 4.6 mph - N/A   Scattered Clouds
6:35 AM 66.4 °F - 64.8 °F 95% 30.06 in 7.0 mi East 5.8 mph - N/A   Scattered Clouds
6:55 AM 67.1 °F - 65.3 °F 94% 30.06 in 10.0 mi ESE 4.6 mph - N/A   Scattered Clouds
7:15 AM 68.4 °F - 66.2 °F 93% 30.07 in 10.0 mi Calm Calm - N/A   Mostly Cloudy
7:35 AM 69.8 °F - 67.1 °F 91% 30.08 in 10.0 mi South 5.8 mph - N/A   Scattered Clouds
7:55 AM 71.4 °F - 67.6 °F 88% 30.08 in 10.0 mi South 6.9 mph - N/A   Scattered Clouds
8:15 AM 72.5 °F - 68.2 °F 86% 30.08 in 10.0 mi South 8.1 mph - N/A   Scattered Clouds
8:35 AM 73.2 °F - 68.4 °F 85% 30.08 in 7.0 mi South 5.8 mph - N/A   Clear
9:15 AM 76.3 °F - 67.1 °F 73% 30.07 in 10.0 mi SSW 12.7 mph - N/A   Scattered Clouds
9:55 AM 77.9 °F - 66.7 °F 68% 30.07 in 10.0 mi SSW 12.7 mph - N/A   Mostly Cloudy
10:15 AM 77.9 °F - 66.6 °F 68% 30.07 in 10.0 mi South 13.8 mph - N/A   Scattered Clouds
10:35 AM 78.3 °F - 66.2 °F 66% 30.08 in 10.0 mi SSW 13.8 mph 18.4 mph N/A   Scattered Clouds
10:55 AM 78.8 °F - 66.4 °F 66% 30.07 in 10.0 mi South 11.5 mph - N/A   Scattered Clouds
11:15 AM 80.4 °F 82.4 °F 66.0 °F 61% 30.07 in 10.0 mi South 12.7 mph 17.3 mph N/A   Scattered Clouds
11:55 AM 81.7 °F 83.5 °F 65.1 °F 57% 30.08 in 10.0 mi South 12.7 mph - N/A   Scattered Clouds
12:15 PM 80.8 °F 82.5 °F 64.9 °F 58% 30.08 in 7.0 mi South 11.5 mph - N/A   Scattered Clouds
12:35 PM 82.4 °F 84.1 °F 64.9 °F 55% 30.07 in 10.0 mi South 11.5 mph 17.3 mph N/A   Scattered Clouds
12:55 PM 82.6 °F 84.1 °F 64.6 °F 54% 30.07 in 10.0 mi South 12.7 mph 18.4 mph N/A   Clear
1:15 PM 82.4 °F 84.1 °F 64.6 °F 55% 30.06 in 10.0 mi South 13.8 mph 19.6 mph N/A   Clear
1:55 PM 84.2 °F 85.6 °F 64.0 °F 51% 30.04 in 10.0 mi South 13.8 mph - N/A   Clear
2:15 PM 84.4 °F 85.6 °F 63.7 °F 50% 30.04 in 10.0 mi South 11.5 mph - N/A   Clear
2:35 PM 84.7 °F 86.1 °F 64.2 °F 50% 30.02 in 10.0 mi SE 11.5 mph 17.3 mph N/A   Clear
2:55 PM 84.7 °F 85.6 °F 63.0 °F 48% 30.03 in 10.0 mi SSE 11.5 mph - N/A   Clear
3:15 PM 85.5 °F 86.3 °F 63.0 °F 47% 30.02 in 10.0 mi South 11.5 mph 18.4 mph N/A   Clear
3:35 PM 84.9 °F 85.6 °F 62.8 °F 47% 30.02 in 10.0 mi SSE 8.1 mph - N/A   Clear
3:55 PM 84.7 °F 85.6 °F 62.8 °F 48% 30.01 in 10.0 mi SSE 10.4 mph - N/A   Clear
4:15 PM 86.5 °F 87.6 °F 63.5 °F 46% 30.00 in 10.0 mi SSE 10.4 mph 16.1 mph N/A   Clear
4:35 PM 85.6 °F 87.1 °F 64.2 °F 49% 30.00 in 10.0 mi South 9.2 mph 16.1 mph N/A   Clear
4:55 PM 85.3 °F 86.4 °F 63.7 °F 48% 29.99 in 10.0 mi South 10.4 mph - N/A   Clear
5:15 PM 85.1 °F 85.9 °F 62.6 °F 47% 30.00 in 10.0 mi South 10.4 mph - N/A   Clear
5:35 PM 85.8 °F 86.8 °F 63.3 °F 47% 30.00 in 10.0 mi South 9.2 mph - N/A   Clear
5:55 PM 85.6 °F 86.8 °F 64.0 °F 48% 30.00 in 10.0 mi South 8.1 mph - N/A   Scattered Clouds
6:15 PM 84.2 °F 85.6 °F 64.0 °F 51% 30.00 in 10.0 mi SSW 10.4 mph - N/A   Mostly Cloudy
6:35 PM 84.2 °F 85.4 °F 63.7 °F 50% 30.00 in 10.0 mi SW 9.2 mph - N/A   Scattered Clouds
6:55 PM 83.8 °F 85.1 °F 64.2 °F 51% 30.00 in 10.0 mi SSW 9.2 mph - N/A   Scattered Clouds
7:15 PM 82.8 °F 84.3 °F 64.8 °F 54% 30.01 in 10.0 mi SW 5.8 mph - N/A   Scattered Clouds
7:35 PM 81.9 °F 83.5 °F 64.9 °F 56% 30.01 in 10.0 mi SW 5.8 mph - N/A   Scattered Clouds
7:55 PM 81.0 °F 82.9 °F 65.3 °F 59% 30.01 in 10.0 mi SSW 4.6 mph - N/A   Mostly Cloudy
8:15 PM 80.2 °F 82.1 °F 65.1 °F 60% 30.01 in 10.0 mi Calm Calm - N/A   Scattered Clouds
8:35 PM 79.2 °F - 64.8 °F 61% 30.02 in 10.0 mi South 4.6 mph - N/A   Scattered Clouds
8:55 PM 79.0 °F - 65.3 °F 63% 30.03 in 10.0 mi South 4.6 mph - N/A   Scattered Clouds
9:15 PM 78.4 °F - 65.5 °F 64% 30.03 in 10.0 mi SSE 4.6 mph - N/A   Scattered Clouds
9:35 PM 77.9 °F - 65.3 °F 65% 30.03 in 10.0 mi SSE 5.8 mph - N/A   Scattered Clouds
9:55 PM 77.5 °F - 65.5 °F 66% 30.03 in 10.0 mi SSE 4.6 mph - N/A   Clear
10:15 PM 77.5 °F - 65.8 °F 67% 30.03 in 10.0 mi South 4.6 mph - N/A   Clear
10:35 PM 77.0 °F - 66.2 °F 69% 30.03 in 10.0 mi SSE 6.9 mph - N/A   Clear
10:55 PM 76.3 °F - 66.7 °F 72% 30.02 in 10.0 mi SSE 9.2 mph - N/A   Clear
11:15 PM 77.0 °F - 66.6 °F 70% 30.02 in 10.0 mi SSE 6.9 mph - N/A   Clear
11:35 PM 77.0 °F - 66.2 °F 69% 30.02 in 10.0 mi South 8.1 mph - N/A   Clear
11:55 PM 76.1 °F - 66.2 °F 71% 30.01 in 10.0 mi SSE 9.2 mph - N/A   Clear